This demonstration page uses our WeatherBlox Daily Observations layout. Learn more.

Left ArrowRight Arrow

Hourly Observations for May 15, 2022

Temp ( °F °C ) Dew Point ( °F °C ) Humidity (%) Winds ( mph kmh ) Pressure ( in mb ) Visibility ( mi km ) Precip ( " mm )
12:53 am 00:53 Clear with Mist and Fog 62 16.7 61 16.1 96 96 Calm 29.94 1014 6 10 0.00 0.00
1:43 am 01:43 Mostly Clear with Mist and Fog 61 16.1 60 15.6 97 97 Calm 29.94 1014 5 8 0.00 0.00
1:53 am 01:53 Mostly Clear with Mist and Fog 61 16.1 60 15.6 97 97 Calm 29.93 1014 4 6 0.00 0.00
2:14 am 02:14 Mostly Cloudy with Mist and Fog 60 15.6 60 15.6 100 100 Calm 29.94 1014 3 5 0.00 0.00
2:30 am 02:30 Cloudy with Mist and Fog 61 16.1 61 16.1 100 100 Calm 29.92 1013 2 3 0.00 0.00
2:34 am 02:34 Cloudy with Mist and Fog 62 16.7 61 16.1 96 96 Calm 29.92 1013 1 1 0.00 0.00
2:53 am 02:53 Cloudy with Mist and Fog 62 16.7 61 16.1 96 96 VRB 3 6 29.92 1013 2 3 0.00 0.00
3:03 am 03:03 Cloudy with Mist and Fog 62 16.7 61 16.1 96 96 Calm 29.92 1013 1 2 0.00 0.00
3:28 am 03:28 Mostly Cloudy with Mist and Fog 62 16.7 61 16.1 96 96 Calm 29.93 1014 1 1 0.00 0.00
3:53 am 03:53 Cloudy with Mist and Fog 62 16.7 61 16.1 96 96 Calm 29.92 1013 1 2 0.00 0.00
3:57 am 03:57 Cloudy with Mist and Fog 62 16.7 61 16.1 96 96 Calm 29.92 1013 2 3 0.00 0.00
4:07 am 04:07 Cloudy with Mist and Fog 61 16.1 61 16.1 100 100 Calm 29.93 1014 3 5 0.00 0.00
4:44 am 04:44 Cloudy with Mist and Fog 61 16.1 60 15.6 97 97 Calm 29.93 1014 2 3 0.00 0.00
4:53 am 04:53 Cloudy with Mist and Fog 61 16.1 60 15.6 97 97 Calm 29.92 1013 2 2 0.00 0.00
5:04 am 05:04 Cloudy with Fog 60 15.6 60 15.6 100 100 Calm 29.93 1013 1 1 0.00 0.00
5:37 am 05:37 Mostly Cloudy with Fog 60 15.6 60 15.6 100 100 Calm 29.93 1013 0 0 0.00 0.00
5:53 am 05:53 Mostly Cloudy with Fog 60 15.6 59 15 96 96 Calm 29.93 1013 0 0 0.00 0.00
6:39 am 06:39 Mostly Cloudy with Fog 60 15.6 60 15.6 100 100 Calm 29.95 1014 N/A 0.00 0.00
6:53 am 06:53 Mostly Cloudy with Fog 60 15.6 60 15.6 100 100 Calm 29.95 1014 N/A 0.00 0.00
7:53 am 07:53 Mostly Cloudy with Fog 61 16.1 60 15.6 97 97 Calm 29.96 1015 N/A 0.00 0.00
8:12 am 08:12 Mostly Cloudy with Fog 61 16.1 60 15.6 97 97 Calm 29.96 1015 0 0 0.00 0.00
8:29 am 08:29 Mostly Cloudy with Fog 62 16.7 61 16.1 96 96 Calm 29.96 1015 N/A 0.00 0.00
8:37 am 08:37 Mostly Cloudy with Fog 62 16.7 62 16.7 100 100 Calm 29.96 1015 0 0 0.00 0.00
8:53 am 08:53 Mostly Cloudy with Mist and Fog 62 16.7 62 16.7 100 100 WNW 3 6 29.97 1015 1 1 0.00 0.00
8:56 am 08:56 Cloudy with Mist and Fog 62 16.7 62 16.7 100 100 Calm 29.97 1015 2 3 0.00 0.00
9:05 am 09:05 Mostly Cloudy with Mist and Fog 63 17.2 63 17.2 100 100 Calm 29.97 1015 4 6 0.00 0.00
9:25 am 09:25 Partly Cloudy 64 17.8 63 17.2 96 96 Calm 29.97 1015 9 14 0.00 0.00
9:53 am 09:53 Sunny 66 18.9 63 17.2 90 90 VRB 3 6 29.98 1015 10 16 0.00 0.00
10:53 am 10:53 Sunny 72 22.2 62 16.7 71 71 Calm 29.98 1015 10 16 0.00 0.00
11:53 am 11:53 Sunny 76 24.4 64 17.8 67 67 Calm 29.95 1014 10 16 0.00 0.00
12:53 pm 12:53 Sunny 79 26.1 60 15.6 52 52 VRB 3 6 29.92 1013 10 16 0.00 0.00
1:53 pm 13:53 Sunny 82 27.8 60 15.6 47 47 VRB 5 7 29.91 1013 10 16 0.00 0.00
2:53 pm 14:53 Sunny 83 28.3 56 13.3 40 40 VRB 3 6 29.89 1012 10 16 0.00 0.00
3:53 pm 15:53 Sunny 84 28.9 58 14.4 41 41 NW 3 6 29.87 1011 10 16 0.00 0.00
4:53 pm 16:53 Sunny 85 29.4 55 12.8 36 36 Calm 29.85 1011 10 16 0.00 0.00
5:53 pm 17:53 Sunny 82 27.8 60 15.6 47 47 Calm 29.82 1010 10 16 0.00 0.00
6:53 pm 18:53 Sunny 77 25 64 17.8 64 64 Calm 29.80 1009 10 16 0.00 0.00
7:53 pm 19:53 Sunny 73 22.8 65 18.3 76 76 Calm 29.80 1009 10 16 0.00 0.00
8:53 pm 20:53 Clear 69 20.6 64 17.8 84 84 Calm 29.79 1009 10 16 0.00 0.00
9:53 pm 21:53 Clear 68 20 62 16.7 81 81 Calm 29.80 1009 10 16 0.00 0.00
10:53 pm 22:53 Clear 69 20.6 61 16.1 76 76 Calm 29.78 1008 10 16 0.00 0.00
11:53 pm 23:53 Clear 71 21.7 57 13.9 61 61 NNW 10 17 29.79 1009 10 16 0.00 0.00

Powered by AerisWeather